Data supplied by UK-AIR on 22/12/2011
All Data GMT hour ending 
Status: R =Ratified P=Provisional,P*=As supplied
,,St Osyth,,,,,,,,,,,,,,,,,,,,,,,
Date,time,"Nitric oxide",status,unit,"Nitrogen dioxide",status,unit,"Nitrogen oxides as nitrogen dioxide",status,unit,"Ozone",status,unit
 
01-01-2010,01:00,0.0,R,ugm-3,1.9,R,ugm-3,1.9,R,ugm-3,62,R,ugm-3
01-01-2010,02:00,,,,,,,,,,64,R,ugm-3
01-01-2010,03:00,0.0,R,ugm-3,2.9,R,ugm-3,2.9,R,ugm-3,66,R,ugm-3
01-01-2010,04:00,0.0,R,ugm-3,1.9,R,ugm-3,1.9,R,ugm-3,68,R,ugm-3
01-01-2010,05:00,0.0,R,ugm-3,1.9,R,ugm-3,1.9,R,ugm-3,64,R,ugm-3
01-01-2010,06:00,0.0,R,ugm-3,2.5,R,ugm-3,2.5,R,ugm-3,60,R,ugm-3
01-01-2010,07:00,0.0,R,ugm-3,1.5,R,ugm-3,1.5,R,ugm-3,68,R,ugm-3
01-01-2010,08:00,0.0,R,ugm-3,3.8,R,ugm-3,3.8,R,ugm-3,58,R,ugm-3
01-01-2010,09:00,0.0,R,ugm-3,5.5,R,ugm-3,5.5,R,ugm-3,58,R,ugm-3
01-01-2010,10:00,0.0,R,ugm-3,4.2,R,ugm-3,4.2,R,ugm-3,60,R,ugm-3
01-01-2010,11:00,0.0,R,ugm-3,3.4,R,ugm-3,3.4,R,ugm-3,62,R,ugm-3
01-01-2010,12:00,0.0,R,ugm-3,1.9,R,ugm-3,1.9,R,ugm-3,66,R,ugm-3
01-01-2010,13:00,0.0,R,ugm-3,3.4,R,ugm-3,3.4,R,ugm-3,64,R,ugm-3
01-01-2010,14:00,0.4,R,ugm-3,2.9,R,ugm-3,3.4,R,ugm-3,62,R,ugm-3
01-01-2010,15:00,1.3,R,ugm-3,5.5,R,ugm-3,7.4,R,ugm-3,58,R,ugm-3
01-01-2010,16:00,0.4,R,ugm-3,11.3,R,ugm-3,11.8,R,ugm-3,44,R,ugm-3
01-01-2010,17:00,0.0,R,ugm-3,13.9,R,ugm-3,13.9,R,ugm-3,38,R,ugm-3
01-01-2010,18:00,0.0,R,ugm-3,14.5,R,ugm-3,14.5,R,ugm-3,38,R,ugm-3
01-01-2010,19:00,0.0,R,ugm-3,12.6,R,ugm-3,12.6,R,ugm-3,42,R,ugm-3
01-01-2010,20:00,0.0,R,ugm-3,14.5,R,ugm-3,14.5,R,ugm-3,38,R,ugm-3
01-01-2010,21:00,0.0,R,ugm-3,17.4,R,ugm-3,17.4,R,ugm-3,28,R,ugm-3
01-01-2010,22:00,1.3,R,ugm-3,24.3,R,ugm-3,26.2,R,ugm-3,22,R,ugm-3
01-01-2010,23:00,1.0,R,ugm-3,31.7,R,ugm-3,33.2,R,ugm-3,20,R,ugm-3
01-01-2010,24:00,1.3,R,ugm-3,41.8,R,ugm-3,43.7,R,ugm-3,14,R,ugm-3
02-01-2010,01:00,3.3,R,ugm-3,56.5,R,ugm-3,61.5,R,ugm-3,6,R,ugm-3
02-01-2010,02:00,,,,,,,,,,0,R,ugm-3
02-01-2010,03:00,5.8,R,ugm-3,62.1,R,ugm-3,70.9,R,ugm-3,2,R,ugm-3
02-01-2010,04:00,1.3,R,ugm-3,46.6,R,ugm-3,48.5,R,ugm-3,12,R,ugm-3
02-01-2010,05:00,1.3,R,ugm-3,35.9,R,ugm-3,37.8,R,ugm-3,16,R,ugm-3
02-01-2010,06:00,1.3,R,ugm-3,16.8,R,ugm-3,18.7,R,ugm-3,26,R,ugm-3
02-01-2010,07:00,0.6,R,ugm-3,7.4,R,ugm-3,8.4,R,ugm-3,34,R,ugm-3
02-01-2010,08:00,1.3,R,ugm-3,8.0,R,ugm-3,9.9,R,ugm-3,32,R,ugm-3
02-01-2010,09:00,1.3,R,ugm-3,12.6,R,ugm-3,14.5,R,ugm-3,26,R,ugm-3
02-01-2010,10:00,2.4,R,ugm-3,11.3,R,ugm-3,14.9,R,ugm-3,28,R,ugm-3
02-01-2010,11:00,3.6,R,ugm-3,9.9,R,ugm-3,15.5,R,ugm-3,32,R,ugm-3
02-01-2010,12:00,4.3,R,ugm-3,10.3,R,ugm-3,16.8,R,ugm-3,36,R,ugm-3
02-01-2010,13:00,3.4,R,ugm-3,10.3,R,ugm-3,15.5,R,ugm-3,42,R,ugm-3
02-01-2010,14:00,2.1,R,ugm-3,11.7,R,ugm-3,14.9,R,ugm-3,44,R,ugm-3
02-01-2010,15:00,1.3,R,ugm-3,9.7,R,ugm-3,11.7,R,ugm-3,42,R,ugm-3
02-01-2010,16:00,1.3,R,ugm-3,10.3,R,ugm-3,12.2,R,ugm-3,42,R,ugm-3
02-01-2010,17:00,1.3,R,ugm-3,11.7,R,ugm-3,13.6,R,ugm-3,32,R,ugm-3
02-01-2010,18:00,1.3,R,ugm-3,33.4,R,ugm-3,35.3,R,ugm-3,16,R,ugm-3
02-01-2010,19:00,2.4,R,ugm-3,49.5,R,ugm-3,53.1,R,ugm-3,10,R,ugm-3
02-01-2010,20:00,1.3,R,ugm-3,39.2,R,ugm-3,41.1,R,ugm-3,18,R,ugm-3
02-01-2010,21:00,1.3,R,ugm-3,42.8,R,ugm-3,44.7,R,ugm-3,16,R,ugm-3
02-01-2010,22:00,1.3,R,ugm-3,12.0,R,ugm-3,13.9,R,ugm-3,36,R,ugm-3
02-01-2010,23:00,1.3,R,ugm-3,11.1,R,ugm-3,13.0,R,ugm-3,34,R,ugm-3
02-01-2010,24:00,1.3,R,ugm-3,10.3,R,ugm-3,12.2,R,ugm-3,32,R,ugm-3
03-01-2010,01:00,1.3,R,ugm-3,13.0,R,ugm-3,14.9,R,ugm-3,28,R,ugm-3
03-01-2010,02:00,,,,,,,,,,48,R,ugm-3
03-01-2010,03:00,0.4,R,ugm-3,5.2,R,ugm-3,5.7,R,ugm-3,48,R,ugm-3
03-01-2010,04:00,1.3,R,ugm-3,5.2,R,ugm-3,7.1,R,ugm-3,42,R,ugm-3
03-01-2010,05:00,1.3,R,ugm-3,4.2,R,ugm-3,6.1,R,ugm-3,40,R,ugm-3
03-01-2010,06:00,1.3,R,ugm-3,6.5,R,ugm-3,8.4,R,ugm-3,34,R,ugm-3
03-01-2010,07:00,1.3,R,ugm-3,4.2,R,ugm-3,6.1,R,ugm-3,38,R,ugm-3
03-01-2010,08:00,0.0,R,ugm-3,5.5,R,ugm-3,5.5,R,ugm-3,40,R,ugm-3
03-01-2010,09:00,1.0,R,ugm-3,7.4,R,ugm-3,9.0,R,ugm-3,36,R,ugm-3
03-01-2010,10:00,1.3,R,ugm-3,6.1,R,ugm-3,8.0,R,ugm-3,36,R,ugm-3
03-01-2010,11:00,1.3,R,ugm-3,5.5,R,ugm-3,7.4,R,ugm-3,34,R,ugm-3
03-01-2010,12:00,1.3,R,ugm-3,1.9,R,ugm-3,3.8,R,ugm-3,40,R,ugm-3
03-01-2010,13:00,1.3,R,ugm-3,2.9,R,ugm-3,4.8,R,ugm-3,40,R,ugm-3
03-01-2010,14:00,1.6,R,ugm-3,5.2,R,ugm-3,7.6,R,ugm-3,34,R,ugm-3
03-01-2010,15:00,1.9,R,ugm-3,6.5,R,ugm-3,9.4,R,ugm-3,30,R,ugm-3
03-01-2010,16:00,1.3,R,ugm-3,11.3,R,ugm-3,13.2,R,ugm-3,26,R,ugm-3
03-01-2010,17:00,1.3,R,ugm-3,7.1,R,ugm-3,9.0,R,ugm-3,30,R,ugm-3
03-01-2010,18:00,1.3,R,ugm-3,13.6,R,ugm-3,15.5,R,ugm-3,20,R,ugm-3
03-01-2010,19:00,1.6,R,ugm-3,19.1,R,ugm-3,21.6,R,ugm-3,10,R,ugm-3
03-01-2010,20:00,2.3,R,ugm-3,27.5,R,ugm-3,30.9,R,ugm-3,6,R,ugm-3
03-01-2010,21:00,2.5,R,ugm-3,30.8,R,ugm-3,34.6,R,ugm-3,4,R,ugm-3
03-01-2010,22:00,1.6,R,ugm-3,21.8,R,ugm-3,24.3,R,ugm-3,8,R,ugm-3
03-01-2010,23:00,1.3,R,ugm-3,13.9,R,ugm-3,15.9,R,ugm-3,16,R,ugm-3
03-01-2010,24:00,1.3,R,ugm-3,9.4,R,ugm-3,11.3,R,ugm-3,18,R,ugm-3
04-01-2010,01:00,1.3,R,ugm-3,11.7,R,ugm-3,13.6,R,ugm-3,16,R,ugm-3
04-01-2010,02:00,,,,,,,,,,14,R,ugm-3
04-01-2010,03:00,1.0,R,ugm-3,13.9,R,ugm-3,15.5,R,ugm-3,16,R,ugm-3
04-01-2010,04:00,0.0,R,ugm-3,12.6,R,ugm-3,12.6,R,ugm-3,16,R,ugm-3
04-01-2010,05:00,0.0,R,ugm-3,12.6,R,ugm-3,12.6,R,ugm-3,16,R,ugm-3
04-01-2010,06:00,0.0,R,ugm-3,14.9,R,ugm-3,14.9,R,ugm-3,18,R,ugm-3
04-01-2010,07:00,1.3,R,ugm-3,24.3,R,ugm-3,26.2,R,ugm-3,6,R,ugm-3
04-01-2010,08:00,1.3,R,ugm-3,28.5,R,ugm-3,30.4,R,ugm-3,4,R,ugm-3
04-01-2010,09:00,5.9,R,ugm-3,30.8,R,ugm-3,39.7,R,ugm-3,4,R,ugm-3
04-01-2010,10:00,9.8,R,ugm-3,29.0,R,ugm-3,43.9,R,ugm-3,10,R,ugm-3
04-01-2010,11:00,9.1,R,ugm-3,22.3,R,ugm-3,36.3,R,ugm-3,18,R,ugm-3
04-01-2010,12:00,,,,,,,,,,,,
04-01-2010,13:00,,,,,,,,,,,,
04-01-2010,14:00,10.8,R,ugm-3,20.4,R,ugm-3,36.9,R,ugm-3,28,R,ugm-3
04-01-2010,15:00,12.5,R,ugm-3,27.1,R,ugm-3,46.2,R,ugm-3,24,R,ugm-3
04-01-2010,16:00,13.1,R,ugm-3,36.9,R,ugm-3,56.9,R,ugm-3,14,R,ugm-3
04-01-2010,17:00,10.1,R,ugm-3,43.0,R,ugm-3,58.4,R,ugm-3,6,R,ugm-3
04-01-2010,18:00,11.0,R,ugm-3,47.2,R,ugm-3,64.0,R,ugm-3,2,R,ugm-3
04-01-2010,19:00,24.1,R,ugm-3,51.4,R,ugm-3,88.2,R,ugm-3,0,R,ugm-3
04-01-2010,20:00,31.8,R,ugm-3,52.3,R,ugm-3,100.8,R,ugm-3,0,R,ugm-3
04-01-2010,21:00,40.6,R,ugm-3,52.3,R,ugm-3,114.4,R,ugm-3,0,R,ugm-3
04-01-2010,22:00,40.5,R,ugm-3,50.4,R,ugm-3,112.3,R,ugm-3,0,R,ugm-3
04-01-2010,23:00,40.9,R,ugm-3,50.4,R,ugm-3,112.9,R,ugm-3,0,R,ugm-3
04-01-2010,24:00,40.0,R,ugm-3,50.0,R,ugm-3,111.2,R,ugm-3,0,R,ugm-3
05-01-2010,01:00,34.6,R,ugm-3,50.4,R,ugm-3,103.3,R,ugm-3,0,R,ugm-3
05-01-2010,02:00,,,,,,,,,,0,R,ugm-3
05-01-2010,03:00,16.1,R,ugm-3,51.4,R,ugm-3,76.0,R,ugm-3,0,R,ugm-3
05-01-2010,04:00,10.1,R,ugm-3,51.4,R,ugm-3,66.9,R,ugm-3,0,R,ugm-3
05-01-2010,05:00,47.3,R,ugm-3,57.1,R,ugm-3,129.3,R,ugm-3,0,R,ugm-3
05-01-2010,06:00,58.5,R,ugm-3,58.4,R,ugm-3,147.8,R,ugm-3,0,R,ugm-3
05-01-2010,07:00,39.1,R,ugm-3,57.5,R,ugm-3,117.3,R,ugm-3,0,R,ugm-3
05-01-2010,08:00,26.3,R,ugm-3,55.2,R,ugm-3,95.3,R,ugm-3,0,R,ugm-3
05-01-2010,09:00,20.5,R,ugm-3,53.3,R,ugm-3,84.6,R,ugm-3,4,R,ugm-3
05-01-2010,10:00,18.4,R,ugm-3,47.2,R,ugm-3,75.3,R,ugm-3,10,R,ugm-3
05-01-2010,11:00,27.5,R,ugm-3,48.5,R,ugm-3,90.5,R,ugm-3,10,R,ugm-3
05-01-2010,12:00,28.1,R,ugm-3,48.5,R,ugm-3,91.5,R,ugm-3,10,R,ugm-3
05-01-2010,13:00,41.5,R,ugm-3,57.5,R,ugm-3,120.9,R,ugm-3,8,R,ugm-3
05-01-2010,14:00,38.8,R,ugm-3,56.0,R,ugm-3,115.2,R,ugm-3,8,R,ugm-3
05-01-2010,15:00,29.3,R,ugm-3,52.0,R,ugm-3,96.6,R,ugm-3,10,R,ugm-3
05-01-2010,16:00,13.8,R,ugm-3,48.5,R,ugm-3,69.5,R,ugm-3,10,R,ugm-3
05-01-2010,17:00,8.0,R,ugm-3,42.0,R,ugm-3,54.2,R,ugm-3,14,R,ugm-3
05-01-2010,18:00,8.0,R,ugm-3,42.4,R,ugm-3,54.6,R,ugm-3,12,R,ugm-3
05-01-2010,19:00,7.6,R,ugm-3,32.7,R,ugm-3,44.3,R,ugm-3,22,R,ugm-3
05-01-2010,20:00,6.1,R,ugm-3,26.2,R,ugm-3,35.5,R,ugm-3,28,R,ugm-3
05-01-2010,21:00,5.5,R,ugm-3,17.8,R,ugm-3,26.2,R,ugm-3,36,R,ugm-3
05-01-2010,22:00,4.9,R,ugm-3,13.9,R,ugm-3,21.4,R,ugm-3,42,R,ugm-3
05-01-2010,23:00,5.9,R,ugm-3,13.0,R,ugm-3,22.0,R,ugm-3,40,R,ugm-3
05-01-2010,24:00,6.1,R,ugm-3,17.2,R,ugm-3,26.5,R,ugm-3,38,R,ugm-3
06-01-2010,01:00,5.3,R,ugm-3,9.9,R,ugm-3,18.0,R,ugm-3,52,R,ugm-3
06-01-2010,02:00,,,,,,,,,,40,R,ugm-3
06-01-2010,03:00,7.1,R,ugm-3,9.9,R,ugm-3,20.8,R,ugm-3,36,R,ugm-3
06-01-2010,04:00,8.3,R,ugm-3,10.3,R,ugm-3,22.9,R,ugm-3,30,R,ugm-3
06-01-2010,05:00,8.9,R,ugm-3,13.6,R,ugm-3,27.1,R,ugm-3,32,R,ugm-3
06-01-2010,06:00,9.8,R,ugm-3,21.6,R,ugm-3,36.5,R,ugm-3,26,R,ugm-3
06-01-2010,07:00,9.5,R,ugm-3,23.5,R,ugm-3,38.0,R,ugm-3,26,R,ugm-3
06-01-2010,08:00,8.9,R,ugm-3,18.9,R,ugm-3,32.5,R,ugm-3,28,R,ugm-3
06-01-2010,09:00,8.9,R,ugm-3,23.9,R,ugm-3,37.4,R,ugm-3,22,R,ugm-3
06-01-2010,10:00,8.5,R,ugm-3,24.8,R,ugm-3,37.8,R,ugm-3,20,R,ugm-3
06-01-2010,11:00,10.1,R,ugm-3,25.2,R,ugm-3,40.7,R,ugm-3,22,R,ugm-3
06-01-2010,12:00,9.8,R,ugm-3,18.3,R,ugm-3,33.2,R,ugm-3,34,R,ugm-3
06-01-2010,13:00,11.4,R,ugm-3,27.1,R,ugm-3,44.5,R,ugm-3,28,R,ugm-3
06-01-2010,14:00,13.1,R,ugm-3,35.5,R,ugm-3,55.6,R,ugm-3,22,R,ugm-3
06-01-2010,15:00,13.8,R,ugm-3,43.5,R,ugm-3,64.6,R,ugm-3,12,R,ugm-3
06-01-2010,16:00,4.6,R,ugm-3,13.0,R,ugm-3,20.1,R,ugm-3,52,R,ugm-3
06-01-2010,17:00,2.5,R,ugm-3,11.7,R,ugm-3,15.5,R,ugm-3,52,R,ugm-3
06-01-2010,18:00,0.4,R,ugm-3,11.3,R,ugm-3,11.8,R,ugm-3,60,R,ugm-3
06-01-2010,19:00,0.0,R,ugm-3,9.9,R,ugm-3,9.9,R,ugm-3,60,R,ugm-3
06-01-2010,20:00,0.0,R,ugm-3,10.3,R,ugm-3,10.3,R,ugm-3,60,R,ugm-3
06-01-2010,21:00,0.0,R,ugm-3,9.0,R,ugm-3,9.0,R,ugm-3,66,R,ugm-3
06-01-2010,22:00,0.0,R,ugm-3,8.4,R,ugm-3,8.4,R,ugm-3,64,R,ugm-3
06-01-2010,23:00,0.0,R,ugm-3,6.5,R,ugm-3,6.5,R,ugm-3,66,R,ugm-3
06-01-2010,24:00,0.0,R,ugm-3,7.1,R,ugm-3,7.1,R,ugm-3,66,R,ugm-3
07-01-2010,01:00,0.4,R,ugm-3,2.5,R,ugm-3,3.1,R,ugm-3,66,R,ugm-3
07-01-2010,02:00,,,,,,,,,,64,R,ugm-3
07-01-2010,03:00,1.3,R,ugm-3,4.6,R,ugm-3,6.5,R,ugm-3,60,R,ugm-3
07-01-2010,04:00,0.6,R,ugm-3,6.5,R,ugm-3,7.4,R,ugm-3,58,R,ugm-3
07-01-2010,05:00,1.0,R,ugm-3,6.1,R,ugm-3,7.6,R,ugm-3,56,R,ugm-3
07-01-2010,06:00,0.6,R,ugm-3,8.4,R,ugm-3,9.4,R,ugm-3,54,R,ugm-3
07-01-2010,07:00,0.0,R,ugm-3,7.4,R,ugm-3,7.4,R,ugm-3,52,R,ugm-3
07-01-2010,08:00,0.6,R,ugm-3,11.3,R,ugm-3,12.2,R,ugm-3,46,R,ugm-3
07-01-2010,09:00,1.3,R,ugm-3,15.5,R,ugm-3,17.4,R,ugm-3,42,R,ugm-3
07-01-2010,10:00,2.8,R,ugm-3,18.5,R,ugm-3,22.7,R,ugm-3,40,R,ugm-3
07-01-2010,11:00,3.6,R,ugm-3,17.4,R,ugm-3,22.9,R,ugm-3,46,R,ugm-3
07-01-2010,12:00,3.4,R,ugm-3,11.3,R,ugm-3,16.4,R,ugm-3,52,R,ugm-3
07-01-2010,13:00,2.5,R,ugm-3,9.7,R,ugm-3,13.6,R,ugm-3,52,R,ugm-3
07-01-2010,14:00,1.9,R,ugm-3,10.1,R,ugm-3,13.0,R,ugm-3,52,R,ugm-3
07-01-2010,15:00,1.3,R,ugm-3,12.6,R,ugm-3,14.5,R,ugm-3,48,R,ugm-3
07-01-2010,16:00,1.3,R,ugm-3,13.6,R,ugm-3,15.5,R,ugm-3,46,R,ugm-3
07-01-2010,17:00,1.3,R,ugm-3,13.0,R,ugm-3,14.9,R,ugm-3,44,R,ugm-3
07-01-2010,18:00,1.6,R,ugm-3,15.5,R,ugm-3,18.0,R,ugm-3,40,R,ugm-3
07-01-2010,19:00,1.0,R,ugm-3,13.9,R,ugm-3,15.5,R,ugm-3,42,R,ugm-3
07-01-2010,20:00,0.4,R,ugm-3,8.0,R,ugm-3,8.6,R,ugm-3,48,R,ugm-3
07-01-2010,21:00,1.9,R,ugm-3,13.9,R,ugm-3,16.8,R,ugm-3,38,R,ugm-3
07-01-2010,22:00,1.6,R,ugm-3,15.5,R,ugm-3,18.0,R,ugm-3,40,R,ugm-3
07-01-2010,23:00,1.3,R,ugm-3,8.4,R,ugm-3,10.3,R,ugm-3,48,R,ugm-3
07-01-2010,24:00,2.5,R,ugm-3,13.6,R,ugm-3,17.4,R,ugm-3,42,R,ugm-3
08-01-2010,01:00,4.5,R,ugm-3,14.3,R,ugm-3,21.2,R,ugm-3,38,R,ugm-3
08-01-2010,02:00,,,,,,,,,,40,R,ugm-3
08-01-2010,03:00,6.1,R,ugm-3,9.4,R,ugm-3,18.7,R,ugm-3,40,R,ugm-3
08-01-2010,04:00,6.1,R,ugm-3,7.4,R,ugm-3,16.8,R,ugm-3,40,R,ugm-3
08-01-2010,05:00,6.5,R,ugm-3,9.0,R,ugm-3,18.9,R,ugm-3,40,R,ugm-3
08-01-2010,06:00,5.9,R,ugm-3,7.4,R,ugm-3,16.4,R,ugm-3,42,R,ugm-3
08-01-2010,07:00,4.9,R,ugm-3,9.4,R,ugm-3,16.8,R,ugm-3,40,R,ugm-3
08-01-2010,08:00,5.3,R,ugm-3,14.9,R,ugm-3,22.9,R,ugm-3,32,R,ugm-3
08-01-2010,09:00,7.1,R,ugm-3,17.2,R,ugm-3,28.1,R,ugm-3,28,R,ugm-3
08-01-2010,10:00,11.0,R,ugm-3,20.1,R,ugm-3,36.9,R,ugm-3,30,R,ugm-3
08-01-2010,11:00,8.9,R,ugm-3,19.3,R,ugm-3,32.9,R,ugm-3,34,R,ugm-3
08-01-2010,12:00,14.0,R,ugm-3,21.6,R,ugm-3,43.0,R,ugm-3,34,R,ugm-3
08-01-2010,13:00,20.5,R,ugm-3,31.9,R,ugm-3,63.2,R,ugm-3,26,R,ugm-3
08-01-2010,14:00,11.0,R,ugm-3,22.9,R,ugm-3,39.7,R,ugm-3,32,R,ugm-3
08-01-2010,15:00,8.9,R,ugm-3,24.8,R,ugm-3,38.4,R,ugm-3,28,R,ugm-3
08-01-2010,16:00,5.3,R,ugm-3,25.2,R,ugm-3,33.2,R,ugm-3,32,R,ugm-3
08-01-2010,17:00,1.6,R,ugm-3,13.9,R,ugm-3,16.4,R,ugm-3,48,R,ugm-3
08-01-2010,18:00,0.6,R,ugm-3,8.4,R,ugm-3,9.4,R,ugm-3,54,R,ugm-3
08-01-2010,19:00,2.3,R,ugm-3,13.0,R,ugm-3,16.4,R,ugm-3,48,R,ugm-3
08-01-2010,20:00,1.3,R,ugm-3,9.7,R,ugm-3,11.7,R,ugm-3,52,R,ugm-3
08-01-2010,21:00,1.3,R,ugm-3,9.0,R,ugm-3,10.9,R,ugm-3,54,R,ugm-3
08-01-2010,22:00,1.3,R,ugm-3,5.5,R,ugm-3,7.4,R,ugm-3,58,R,ugm-3
08-01-2010,23:00,1.0,R,ugm-3,7.1,R,ugm-3,8.6,R,ugm-3,54,R,ugm-3
08-01-2010,24:00,0.0,R,ugm-3,10.3,R,ugm-3,10.3,R,ugm-3,50,R,ugm-3
09-01-2010,01:00,0.0,R,ugm-3,7.4,R,ugm-3,7.4,R,ugm-3,54,R,ugm-3
09-01-2010,02:00,,,,,,,,,,56,R,ugm-3
09-01-2010,03:00,0.0,R,ugm-3,5.2,R,ugm-3,5.2,R,ugm-3,58,R,ugm-3
09-01-2010,04:00,0.0,R,ugm-3,2.9,R,ugm-3,2.9,R,ugm-3,58,R,ugm-3
09-01-2010,05:00,0.0,R,ugm-3,6.1,R,ugm-3,6.1,R,ugm-3,54,R,ugm-3
09-01-2010,06:00,0.0,R,ugm-3,5.2,R,ugm-3,5.2,R,ugm-3,56,R,ugm-3
09-01-2010,07:00,0.0,R,ugm-3,2.5,R,ugm-3,2.5,R,ugm-3,62,R,ugm-3
09-01-2010,08:00,0.0,R,ugm-3,3.8,R,ugm-3,3.8,R,ugm-3,62,R,ugm-3
09-01-2010,09:00,0.0,R,ugm-3,2.9,R,ugm-3,2.9,R,ugm-3,64,R,ugm-3
09-01-2010,10:00,0.0,R,ugm-3,4.2,R,ugm-3,4.2,R,ugm-3,62,R,ugm-3
09-01-2010,11:00,0.0,R,ugm-3,1.9,R,ugm-3,1.9,R,ugm-3,64,R,ugm-3
09-01-2010,12:00,0.0,R,ugm-3,1.0,R,ugm-3,1.0,R,ugm-3,68,R,ugm-3
09-01-2010,13:00,0.0,R,ugm-3,0.0,R,ugm-3,0.0,R,ugm-3,68,R,ugm-3
09-01-2010,14:00,0.0,R,ugm-3,0.6,R,ugm-3,0.6,R,ugm-3,68,R,ugm-3
09-01-2010,15:00,0.0,R,ugm-3,1.9,R,ugm-3,1.9,R,ugm-3,64,R,ugm-3
09-01-2010,16:00,0.0,R,ugm-3,1.0,R,ugm-3,1.0,R,ugm-3,62,R,ugm-3
09-01-2010,17:00,0.0,R,ugm-3,0.0,R,ugm-3,0.0,R,ugm-3,64,R,ugm-3
09-01-2010,18:00,0.0,R,ugm-3,0.6,R,ugm-3,0.6,R,ugm-3,64,R,ugm-3
09-01-2010,19:00,0.0,R,ugm-3,1.9,R,ugm-3,1.9,R,ugm-3,64,R,ugm-3
09-01-2010,20:00,0.0,R,ugm-3,1.9,R,ugm-3,1.9,R,ugm-3,64,R,ugm-3
09-01-2010,21:00,0.0,R,ugm-3,2.5,R,ugm-3,2.5,R,ugm-3,64,R,ugm-3
09-01-2010,22:00,0.0,R,ugm-3,1.9,R,ugm-3,1.9,R,ugm-3,64,R,ugm-3
09-01-2010,23:00,0.0,R,ugm-3,0.6,R,ugm-3,0.6,R,ugm-3,64,R,ugm-3
09-01-2010,24:00,0.0,R,ugm-3,0.0,R,ugm-3,0.0,R,ugm-3,66,R,ugm-3
10-01-2010,01:00,0.0,R,ugm-3,1.3,R,ugm-3,1.3,R,ugm-3,66,R,ugm-3
10-01-2010,02:00,,,,,,,,,,66,R,ugm-3
10-01-2010,03:00,0.0,R,ugm-3,3.8,R,ugm-3,3.8,R,ugm-3,68,R,ugm-3
10-01-2010,04:00,0.0,R,ugm-3,3.8,R,ugm-3,3.8,R,ugm-3,66,R,ugm-3
10-01-2010,05:00,0.0,R,ugm-3,2.9,R,ugm-3,2.9,R,ugm-3,66,R,ugm-3
10-01-2010,06:00,0.0,R,ugm-3,2.9,R,ugm-3,2.9,R,ugm-3,66,R,ugm-3
10-01-2010,07:00,0.0,R,ugm-3,5.2,R,ugm-3,5.2,R,ugm-3,64,R,ugm-3
10-01-2010,08:00,0.0,R,ugm-3,4.2,R,ugm-3,4.2,R,ugm-3,66,R,ugm-3
10-01-2010,09:00,0.0,R,ugm-3,4.8,R,ugm-3,4.8,R,ugm-3,66,R,ugm-3
10-01-2010,10:00,0.0,R,ugm-3,7.1,R,ugm-3,7.1,R,ugm-3,62,R,ugm-3
10-01-2010,11:00,0.6,R,ugm-3,5.2,R,ugm-3,6.1,R,ugm-3,64,R,ugm-3
10-01-2010,12:00,0.4,R,ugm-3,3.8,R,ugm-3,4.4,R,ugm-3,64,R,ugm-3
10-01-2010,13:00,1.3,R,ugm-3,5.2,R,ugm-3,7.1,R,ugm-3,62,R,ugm-3
10-01-2010,14:00,1.3,R,ugm-3,4.2,R,ugm-3,6.1,R,ugm-3,64,R,ugm-3
10-01-2010,15:00,1.3,R,ugm-3,6.1,R,ugm-3,8.0,R,ugm-3,62,R,ugm-3
10-01-2010,16:00,1.3,R,ugm-3,7.1,R,ugm-3,9.0,R,ugm-3,60,R,ugm-3
10-01-2010,17:00,1.9,R,ugm-3,7.1,R,ugm-3,9.9,R,ugm-3,60,R,ugm-3
10-01-2010,18:00,2.5,R,ugm-3,7.8,R,ugm-3,11.7,R,ugm-3,58,R,ugm-3
10-01-2010,19:00,2.5,R,ugm-3,9.2,R,ugm-3,13.0,R,ugm-3,56,R,ugm-3
10-01-2010,20:00,3.6,R,ugm-3,9.0,R,ugm-3,14.5,R,ugm-3,54,R,ugm-3
10-01-2010,21:00,3.6,R,ugm-3,7.1,R,ugm-3,12.6,R,ugm-3,56,R,ugm-3
10-01-2010,22:00,3.6,R,ugm-3,9.4,R,ugm-3,14.9,R,ugm-3,50,R,ugm-3
10-01-2010,23:00,4.6,R,ugm-3,9.4,R,ugm-3,16.4,R,ugm-3,44,R,ugm-3
10-01-2010,24:00,4.9,R,ugm-3,9.4,R,ugm-3,16.8,R,ugm-3,44,R,ugm-3
11-01-2010,01:00,4.9,R,ugm-3,11.3,R,ugm-3,18.7,R,ugm-3,40,R,ugm-3
11-01-2010,02:00,,,,,,,,,,42,R,ugm-3
11-01-2010,03:00,4.9,R,ugm-3,11.3,R,ugm-3,18.7,R,ugm-3,42,R,ugm-3
11-01-2010,04:00,4.9,R,ugm-3,11.3,R,ugm-3,18.7,R,ugm-3,40,R,ugm-3
11-01-2010,05:00,4.9,R,ugm-3,13.2,R,ugm-3,20.6,R,ugm-3,36,R,ugm-3
11-01-2010,06:00,4.9,R,ugm-3,15.9,R,ugm-3,23.3,R,ugm-3,30,R,ugm-3
11-01-2010,07:00,4.9,R,ugm-3,15.5,R,ugm-3,22.9,R,ugm-3,30,R,ugm-3
11-01-2010,08:00,6.4,R,ugm-3,15.9,R,ugm-3,25.6,R,ugm-3,32,R,ugm-3
11-01-2010,09:00,4.9,R,ugm-3,12.8,R,ugm-3,20.2,R,ugm-3,34,R,ugm-3
11-01-2010,10:00,7.4,R,ugm-3,17.4,R,ugm-3,28.7,R,ugm-3,32,R,ugm-3
11-01-2010,11:00,8.3,R,ugm-3,15.9,R,ugm-3,28.5,R,ugm-3,36,R,ugm-3
11-01-2010,12:00,4.9,R,ugm-3,11.3,R,ugm-3,18.7,R,ugm-3,36,R,ugm-3
11-01-2010,13:00,5.3,R,ugm-3,11.3,R,ugm-3,19.3,R,ugm-3,34,R,ugm-3
11-01-2010,14:00,7.4,R,ugm-3,14.5,R,ugm-3,25.8,R,ugm-3,38,R,ugm-3
11-01-2010,15:00,7.4,R,ugm-3,17.2,R,ugm-3,28.5,R,ugm-3,34,R,ugm-3
11-01-2010,16:00,8.3,R,ugm-3,28.1,R,ugm-3,40.7,R,ugm-3,22,R,ugm-3
11-01-2010,17:00,19.5,R,ugm-3,53.3,R,ugm-3,83.1,R,ugm-3,2,R,ugm-3
11-01-2010,18:00,21.0,R,ugm-3,52.3,R,ugm-3,84.4,R,ugm-3,0,R,ugm-3
11-01-2010,19:00,17.8,R,ugm-3,49.1,R,ugm-3,76.2,R,ugm-3,0,R,ugm-3
11-01-2010,20:00,12.5,R,ugm-3,43.0,R,ugm-3,62.1,R,ugm-3,0,R,ugm-3
11-01-2010,21:00,8.9,R,ugm-3,42.6,R,ugm-3,56.2,R,ugm-3,2,R,ugm-3
11-01-2010,22:00,10.8,R,ugm-3,49.1,R,ugm-3,65.5,R,ugm-3,0,R,ugm-3
11-01-2010,23:00,8.5,R,ugm-3,43.9,R,ugm-3,56.9,R,ugm-3,2,R,ugm-3
11-01-2010,24:00,13.1,R,ugm-3,47.8,R,ugm-3,67.8,R,ugm-3,0,R,ugm-3
12-01-2010,01:00,9.8,R,ugm-3,41.6,R,ugm-3,56.5,R,ugm-3,4,R,ugm-3
12-01-2010,02:00,,,,,,,,,,6,R,ugm-3
12-01-2010,03:00,9.8,R,ugm-3,38.0,R,ugm-3,52.9,R,ugm-3,4,R,ugm-3
12-01-2010,04:00,10.1,R,ugm-3,35.9,R,ugm-3,51.4,R,ugm-3,6,R,ugm-3
12-01-2010,05:00,9.8,R,ugm-3,34.6,R,ugm-3,49.5,R,ugm-3,6,R,ugm-3
12-01-2010,06:00,11.0,R,ugm-3,32.7,R,ugm-3,49.5,R,ugm-3,6,R,ugm-3
12-01-2010,07:00,11.4,R,ugm-3,30.9,R,ugm-3,48.3,R,ugm-3,6,R,ugm-3
12-01-2010,08:00,10.1,R,ugm-3,20.6,R,ugm-3,36.1,R,ugm-3,14,R,ugm-3
12-01-2010,09:00,10.6,R,ugm-3,14.9,R,ugm-3,31.1,R,ugm-3,22,R,ugm-3
12-01-2010,10:00,10.4,R,ugm-3,28.5,R,ugm-3,44.3,R,ugm-3,18,R,ugm-3
12-01-2010,11:00,10.4,R,ugm-3,25.4,R,ugm-3,41.3,R,ugm-3,30,R,ugm-3
12-01-2010,12:00,8.9,R,ugm-3,17.8,R,ugm-3,31.3,R,ugm-3,42,R,ugm-3
12-01-2010,13:00,7.4,R,ugm-3,16.8,R,ugm-3,28.1,R,ugm-3,42,R,ugm-3
12-01-2010,14:00,7.4,R,ugm-3,25.2,R,ugm-3,36.5,R,ugm-3,30,R,ugm-3
12-01-2010,15:00,5.9,R,ugm-3,31.3,R,ugm-3,40.3,R,ugm-3,28,R,ugm-3
12-01-2010,16:00,5.3,R,ugm-3,42.0,R,ugm-3,50.0,R,ugm-3,20,R,ugm-3
12-01-2010,17:00,4.9,R,ugm-3,56.2,R,ugm-3,63.6,R,ugm-3,8,R,ugm-3
12-01-2010,18:00,4.9,R,ugm-3,50.4,R,ugm-3,57.9,R,ugm-3,12,R,ugm-3
12-01-2010,19:00,4.9,R,ugm-3,48.1,R,ugm-3,55.6,R,ugm-3,12,R,ugm-3
12-01-2010,20:00,4.9,R,ugm-3,42.0,R,ugm-3,49.5,R,ugm-3,14,R,ugm-3
12-01-2010,21:00,4.9,R,ugm-3,42.6,R,ugm-3,50.0,R,ugm-3,14,R,ugm-3
12-01-2010,22:00,4.9,R,ugm-3,44.9,R,ugm-3,52.3,R,ugm-3,8,R,ugm-3
12-01-2010,23:00,4.9,R,ugm-3,37.8,R,ugm-3,45.3,R,ugm-3,16,R,ugm-3
12-01-2010,24:00,4.6,R,ugm-3,19.7,R,ugm-3,26.7,R,ugm-3,42,R,ugm-3
13-01-2010,01:00,3.6,R,ugm-3,30.0,R,ugm-3,35.5,R,ugm-3,26,R,ugm-3
13-01-2010,02:00,,,,,,,,,,20,R,ugm-3
13-01-2010,03:00,4.9,R,ugm-3,43.5,R,ugm-3,51.0,R,ugm-3,14,R,ugm-3
13-01-2010,04:00,5.9,R,ugm-3,46.8,R,ugm-3,55.8,R,ugm-3,8,R,ugm-3
13-01-2010,05:00,4.9,R,ugm-3,40.3,R,ugm-3,47.8,R,ugm-3,10,R,ugm-3
13-01-2010,06:00,4.9,R,ugm-3,38.0,R,ugm-3,45.5,R,ugm-3,12,R,ugm-3
13-01-2010,07:00,4.9,R,ugm-3,38.4,R,ugm-3,45.8,R,ugm-3,12,R,ugm-3
13-01-2010,08:00,4.9,R,ugm-3,35.1,R,ugm-3,42.6,R,ugm-3,14,R,ugm-3
13-01-2010,09:00,5.5,R,ugm-3,33.6,R,ugm-3,42.0,R,ugm-3,16,R,ugm-3
13-01-2010,10:00,6.8,R,ugm-3,30.8,R,ugm-3,41.1,R,ugm-3,18,R,ugm-3
13-01-2010,11:00,8.5,R,ugm-3,28.7,R,ugm-3,41.6,R,ugm-3,20,R,ugm-3
13-01-2010,12:00,8.9,R,ugm-3,31.9,R,ugm-3,45.5,R,ugm-3,18,R,ugm-3
13-01-2010,13:00,12.3,R,ugm-3,34.2,R,ugm-3,52.9,R,ugm-3,16,R,ugm-3
13-01-2010,14:00,14.6,R,ugm-3,34.8,R,ugm-3,57.1,R,ugm-3,14,R,ugm-3
13-01-2010,15:00,13.8,R,ugm-3,37.4,R,ugm-3,58.4,R,ugm-3,10,R,ugm-3
13-01-2010,16:00,12.5,R,ugm-3,39.7,R,ugm-3,58.8,R,ugm-3,8,R,ugm-3
13-01-2010,17:00,10.4,R,ugm-3,40.7,R,ugm-3,56.5,R,ugm-3,2,R,ugm-3
13-01-2010,18:00,9.8,R,ugm-3,46.4,R,ugm-3,61.3,R,ugm-3,2,R,ugm-3
13-01-2010,19:00,13.8,R,ugm-3,50.6,R,ugm-3,71.6,R,ugm-3,0,R,ugm-3
13-01-2010,20:00,13.5,R,ugm-3,49.7,R,ugm-3,70.3,R,ugm-3,0,R,ugm-3
13-01-2010,21:00,8.5,R,ugm-3,44.1,R,ugm-3,57.1,R,ugm-3,2,R,ugm-3
13-01-2010,22:00,8.5,R,ugm-3,45.8,R,ugm-3,58.8,R,ugm-3,0,R,ugm-3
13-01-2010,23:00,10.4,R,ugm-3,44.9,R,ugm-3,60.7,R,ugm-3,0,R,ugm-3
13-01-2010,24:00,12.5,R,ugm-3,45.5,R,ugm-3,64.6,R,ugm-3,0,R,ugm-3
14-01-2010,01:00,10.1,R,ugm-3,40.5,R,ugm-3,56.0,R,ugm-3,2,R,ugm-3
14-01-2010,02:00,,,,,,,,,,2,R,ugm-3
14-01-2010,03:00,11.9,R,ugm-3,45.5,R,ugm-3,63.6,R,ugm-3,0,R,ugm-3
14-01-2010,04:00,8.5,R,ugm-3,34.4,R,ugm-3,47.4,R,ugm-3,10,R,ugm-3
14-01-2010,05:00,9.8,R,ugm-3,40.3,R,ugm-3,55.2,R,ugm-3,2,R,ugm-3
14-01-2010,06:00,11.3,R,ugm-3,39.3,R,ugm-3,56.5,R,ugm-3,6,R,ugm-3
14-01-2010,07:00,10.4,R,ugm-3,40.7,R,ugm-3,56.5,R,ugm-3,8,R,ugm-3
14-01-2010,08:00,15.6,R,ugm-3,37.8,R,ugm-3,61.7,R,ugm-3,18,R,ugm-3
14-01-2010,09:00,34.8,R,ugm-3,42.8,R,ugm-3,95.9,R,ugm-3,24,R,ugm-3
14-01-2010,10:00,14.6,R,ugm-3,24.4,R,ugm-3,46.8,R,ugm-3,24,R,ugm-3
14-01-2010,11:00,12.5,R,ugm-3,22.5,R,ugm-3,41.6,R,ugm-3,26,R,ugm-3
14-01-2010,12:00,11.9,R,ugm-3,27.7,R,ugm-3,45.8,R,ugm-3,22,R,ugm-3
14-01-2010,13:00,13.1,R,ugm-3,34.2,R,ugm-3,54.2,R,ugm-3,20,R,ugm-3
14-01-2010,14:00,9.1,R,ugm-3,27.3,R,ugm-3,41.3,R,ugm-3,28,R,ugm-3
14-01-2010,15:00,9.8,R,ugm-3,30.9,R,ugm-3,45.8,R,ugm-3,26,R,ugm-3
14-01-2010,16:00,11.0,R,ugm-3,31.9,R,ugm-3,48.7,R,ugm-3,24,R,ugm-3
14-01-2010,17:00,11.0,R,ugm-3,38.4,R,ugm-3,55.2,R,ugm-3,16,R,ugm-3
14-01-2010,18:00,11.0,R,ugm-3,31.9,R,ugm-3,48.7,R,ugm-3,16,R,ugm-3
14-01-2010,19:00,11.9,R,ugm-3,35.7,R,ugm-3,53.9,R,ugm-3,10,R,ugm-3
14-01-2010,20:00,22.6,R,ugm-3,48.7,R,ugm-3,83.3,R,ugm-3,0,R,ugm-3
14-01-2010,21:00,27.8,R,ugm-3,47.4,R,ugm-3,89.8,R,ugm-3,0,R,ugm-3
14-01-2010,22:00,17.1,R,ugm-3,38.0,R,ugm-3,64.2,R,ugm-3,8,R,ugm-3
14-01-2010,23:00,11.4,R,ugm-3,27.1,R,ugm-3,44.5,R,ugm-3,14,R,ugm-3
14-01-2010,24:00,23.3,R,ugm-3,43.5,R,ugm-3,79.1,R,ugm-3,0,R,ugm-3
15-01-2010,01:00,23.5,R,ugm-3,43.7,R,ugm-3,79.6,R,ugm-3,,,
15-01-2010,02:00,,,,,,,,,,2,R,ugm-3
15-01-2010,03:00,26.9,R,ugm-3,48.7,R,ugm-3,89.8,R,ugm-3,2,R,ugm-3
15-01-2010,04:00,26.3,R,ugm-3,41.8,R,ugm-3,81.9,R,ugm-3,2,R,ugm-3
15-01-2010,05:00,33.0,R,ugm-3,42.8,R,ugm-3,93.2,R,ugm-3,2,R,ugm-3
15-01-2010,06:00,35.1,R,ugm-3,43.5,R,ugm-3,97.2,R,ugm-3,2,R,ugm-3
15-01-2010,07:00,22.3,R,ugm-3,48.7,R,ugm-3,82.7,R,ugm-3,0,R,ugm-3
15-01-2010,08:00,22.0,R,ugm-3,50.2,R,ugm-3,83.8,R,ugm-3,2,R,ugm-3
15-01-2010,09:00,33.0,R,ugm-3,54.1,R,ugm-3,104.5,R,ugm-3,2,R,ugm-3
15-01-2010,10:00,30.3,R,ugm-3,55.2,R,ugm-3,101.4,R,ugm-3,6,R,ugm-3
15-01-2010,11:00,18.6,R,ugm-3,44.9,R,ugm-3,73.3,R,ugm-3,14,R,ugm-3
15-01-2010,12:00,22.0,R,ugm-3,46.4,R,ugm-3,80.0,R,ugm-3,12,R,ugm-3
15-01-2010,13:00,15.9,R,ugm-3,42.8,R,ugm-3,67.0,R,ugm-3,16,R,ugm-3
15-01-2010,14:00,9.8,R,ugm-3,26.4,R,ugm-3,41.3,R,ugm-3,30,R,ugm-3
15-01-2010,15:00,8.0,R,ugm-3,22.9,R,ugm-3,35.1,R,ugm-3,36,R,ugm-3
15-01-2010,16:00,8.3,R,ugm-3,28.7,R,ugm-3,41.3,R,ugm-3,30,R,ugm-3
15-01-2010,17:00,6.5,R,ugm-3,22.3,R,ugm-3,32.3,R,ugm-3,40,R,ugm-3
15-01-2010,18:00,6.1,R,ugm-3,21.6,R,ugm-3,30.9,R,ugm-3,42,R,ugm-3
15-01-2010,19:00,6.5,R,ugm-3,20.6,R,ugm-3,30.6,R,ugm-3,40,R,ugm-3
15-01-2010,20:00,6.1,R,ugm-3,24.8,R,ugm-3,34.2,R,ugm-3,32,R,ugm-3
15-01-2010,21:00,6.1,R,ugm-3,25.8,R,ugm-3,35.1,R,ugm-3,28,R,ugm-3
15-01-2010,22:00,6.5,R,ugm-3,33.6,R,ugm-3,43.5,R,ugm-3,18,R,ugm-3
15-01-2010,23:00,5.3,R,ugm-3,37.1,R,ugm-3,45.1,R,ugm-3,18,R,ugm-3
15-01-2010,24:00,4.9,R,ugm-3,34.2,R,ugm-3,41.6,R,ugm-3,18,R,ugm-3
16-01-2010,01:00,3.6,R,ugm-3,34.4,R,ugm-3,39.9,R,ugm-3,18,R,ugm-3
16-01-2010,02:00,,,,,,,,,,26,R,ugm-3
16-01-2010,03:00,2.5,R,ugm-3,23.3,R,ugm-3,27.1,R,ugm-3,28,R,ugm-3
16-01-2010,04:00,3.1,R,ugm-3,40.1,R,ugm-3,44.9,R,ugm-3,16,R,ugm-3
16-01-2010,05:00,4.0,R,ugm-3,58.1,R,ugm-3,64.2,R,ugm-3,6,R,ugm-3
16-01-2010,06:00,2.5,R,ugm-3,36.5,R,ugm-3,40.3,R,ugm-3,18,R,ugm-3
16-01-2010,07:00,1.3,R,ugm-3,20.6,R,ugm-3,22.5,R,ugm-3,28,R,ugm-3
16-01-2010,08:00,1.0,R,ugm-3,13.2,R,ugm-3,14.7,R,ugm-3,40,R,ugm-3
16-01-2010,09:00,0.0,R,ugm-3,14.1,R,ugm-3,14.1,R,ugm-3,42,R,ugm-3
16-01-2010,10:00,0.0,R,ugm-3,12.2,R,ugm-3,12.2,R,ugm-3,46,R,ugm-3